Location: Apthorp Dam
(44.3084°N, 71.7462°W)
Time: 01:18:53
(UTC+00:00)

BlueWalker 3 - Visible Passes

Search period start: 19 November 2025 00:00
Search period end: 29 November 2025 00:00
Orbit: 456 x 463 km, 53.2° (Epoch: 18 November)

Date Brightness Start Highest point End Pass type
(mag) Time Alt. Az. Time Alt. Az. Time Alt. Az.
19 Nov 3.2 22:19:53 10° S 22:22:46 22° SE 22:24:16 17° E visible
19 Nov 4.1 23:56:30 10° WSW 23:58:05 24° W 23:58:05 24° W visible
20 Nov 3.6 21:45:49 10° S 21:48:19 18° SE 21:50:49 10° E visible
20 Nov 2.1 23:21:53 10° WSW 23:25:08 63° WNW 23:25:08 63° WNW visible
21 Nov 1.7 22:47:19 10° SW 22:50:56 86° NNW 22:52:06 41° NE visible
22 Nov 5.2 00:25:50 10° WNW 00:25:54 10° WNW 00:25:54 10° WNW visible
22 Nov 1.7 22:12:45 10° SW 22:16:22 76° SE 22:19:00 18° ENE visible
22 Nov 4.1 23:51:04 10° WNW 23:52:47 21° NW 23:52:47 21° NW visible
23 Nov 3.1 23:16:17 10° W 23:19:33 30° NNW 23:19:37 30° NNW visible
24 Nov 2.9 22:41:30 10° W 22:44:51 34° NNW 22:46:23 24° NNE visible
25 Nov 2.7 22:06:44 10° W 22:10:10 40° NNW 22:13:06 13° NE visible
25 Nov 4.4 23:45:40 10° NW 23:46:53 16° NW 23:46:53 16° NW visible
26 Nov 3.6 23:10:51 10° WNW 23:13:34 21° N 23:13:34 21° N visible
27 Nov 3.5 22:36:01 10° WNW 22:38:54 22° N 22:40:14 18° NNE visible
28 Nov 3.4 22:01:09 10° WNW 22:04:08 23° NNW 22:06:53 11° NE visible
28 Nov 4.4 23:39:43 10° NW 23:40:39 15° NNW 23:40:39 15° NNW visible
